PTLDR LFKJ-LFKF

Flight info

Callsign PTLDR
Flight time 0h 36m
Altitude 4500
Route DCT
Aircraft DA42/L-SDFGRY/C

Departure

Time 2026-05-03 22:23
Airport Ajaccio Napoléon Bonaparte airport (LFKJ)

Arrival

Time 2026-05-03 22:59
Airport Figari Sud-Corse Airport (LFKF)
Time Latitude Longitude Altitude Speed Heading
2026-05-03 22:07 41.92192 8.79482 16 ft 0 kts 348°
2026-05-03 22:16 41.92216 8.79489 16 ft 7 kts 23°
2026-05-03 22:16 41.92273 8.79521 16 ft 8 kts
2026-05-03 22:17 41.92311 8.79571 16 ft 11 kts 97°
2026-05-03 22:17 41.92303 8.79692 16 ft 15 kts 97°
2026-05-03 22:17 41.92294 8.79826 16 ft 13 kts 89°
2026-05-03 22:17 41.92337 8.79879 16 ft 15 kts 23°
2026-05-03 22:18 41.92407 8.79946 16 ft 13 kts 81°
2026-05-03 22:18 41.92401 8.80073 16 ft 11 kts 95°
2026-05-03 22:18 41.92399 8.80104 16 ft 0 kts 95°
2026-05-03 22:18 41.92398 8.80113 16 ft 4 kts 94°
2026-05-03 22:19 41.92394 8.80173 17 ft 8 kts 95°
2026-05-03 22:19 41.92367 8.80230 18 ft 10 kts 222°
2026-05-03 22:19 41.92354 8.80221 18 ft 0 kts 203°
2026-05-03 22:21 41.92283 8.80179 17 ft 39 kts 205°
2026-05-03 22:21 41.91873 8.79922 18 ft 85 kts 205°
2026-05-03 22:21 41.91286 8.79549 118 ft 98 kts 206°
2026-05-03 22:22 41.90627 8.79125 200 ft 118 kts 205°
2026-05-03 22:22 41.89791 8.78588 104 ft 135 kts 207°
2026-05-03 22:22 41.88991 8.78067 377 ft 127 kts 204°
2026-05-03 22:22 41.88149 8.77550 455 ft 134 kts 204°
2026-05-03 22:23 41.87359 8.77053 854 ft 114 kts 205°
2026-05-03 22:23 41.86695 8.76629 1214 ft 104 kts 205°
2026-05-03 22:23 41.86032 8.76207 1462 ft 106 kts 205°
2026-05-03 22:23 41.85366 8.75781 1714 ft 106 kts 205°
2026-05-03 22:24 41.84698 8.75356 1975 ft 106 kts 205°
2026-05-03 22:24 41.84039 8.74933 2231 ft 106 kts 205°
2026-05-03 22:24 41.83372 8.74503 2488 ft 107 kts 205°
2026-05-03 22:24 41.82635 8.74066 2530 ft 125 kts 195°
2026-05-03 22:25 41.81734 8.73837 2537 ft 138 kts 188°
2026-05-03 22:25 41.80765 8.73634 2536 ft 142 kts 188°
2026-05-03 22:25 41.79795 8.73444 2533 ft 140 kts 184°
2026-05-03 22:25 41.78828 8.73544 2528 ft 139 kts 170°
2026-05-03 22:26 41.77880 8.73765 2534 ft 138 kts 169°
2026-05-03 22:26 41.76933 8.73993 2533 ft 138 kts 169°
2026-05-03 22:26 41.75984 8.74224 2530 ft 138 kts 169°
2026-05-03 22:26 41.75039 8.74452 2533 ft 138 kts 169°
2026-05-03 22:27 41.74181 8.74987 2523 ft 137 kts 144°
2026-05-03 22:27 41.73408 8.75743 2531 ft 138 kts 143°
2026-05-03 22:27 41.72616 8.76439 2531 ft 138 kts 147°
2026-05-03 22:27 41.71802 8.77126 2523 ft 138 kts 147°
2026-05-03 22:28 41.70997 8.77809 2469 ft 137 kts 147°
2026-05-03 22:28 41.70169 8.78441 2322 ft 138 kts 151°
2026-05-03 22:28 41.69336 8.79041 2205 ft 134 kts 150°
2026-05-03 22:28 41.68543 8.79683 2035 ft 134 kts 147°
2026-05-03 22:29 41.67757 8.80352 1870 ft 134 kts 141°
2026-05-03 22:29 41.67069 8.81184 1706 ft 133 kts 134°
2026-05-03 22:29 41.66473 8.82129 1423 ft 128 kts 123°
2026-05-03 22:29 41.66118 8.83099 1155 ft 110 kts 104°
2026-05-03 22:30 41.66067 8.84093 876 ft 107 kts 86°
2026-05-03 22:30 41.66141 8.85069 653 ft 102 kts 82°
2026-05-03 22:30 41.66246 8.86004 410 ft 101 kts 84°
2026-05-03 22:30 41.66227 8.86928 230 ft 99 kts 96°
2026-05-03 22:31 41.66146 8.87830 79 ft 95 kts 95°
2026-05-03 22:31 41.66082 8.88677 12 ft 86 kts 95°
2026-05-03 22:31 41.66024 8.89506 38 ft 90 kts 95°
2026-05-03 22:31 41.65963 8.90305 247 ft 85 kts 92°
2026-05-03 22:32 41.65934 8.91123 402 ft 92 kts 92°
2026-05-03 22:32 41.66121 8.91905 678 ft 89 kts 47°
2026-05-03 22:32 41.66682 8.92227 926 ft 92 kts
2026-05-03 22:32 41.67291 8.91880 1039 ft 108 kts 317°
2026-05-03 22:33 41.67618 8.90901 1110 ft 121 kts 273°
2026-05-03 22:33 41.67597 8.89879 1547 ft 99 kts 267°
2026-05-03 22:33 41.67559 8.88980 1848 ft 97 kts 267°
2026-05-03 22:33 41.67521 8.88076 2097 ft 98 kts 267°
2026-05-03 22:34 41.67487 8.87167 2352 ft 97 kts 267°
2026-05-03 22:34 41.67459 8.86246 2528 ft 107 kts 267°
2026-05-03 22:34 41.67430 8.85165 2535 ft 127 kts 267°
2026-05-03 22:34 41.67397 8.83927 2537 ft 138 kts 267°
2026-05-03 22:35 41.67360 8.82616 2534 ft 144 kts 267°
2026-05-03 22:35 41.67020 8.81372 2522 ft 147 kts 226°
2026-05-03 22:35 41.66134 8.80723 2519 ft 147 kts 198°
2026-05-03 22:35 41.65146 8.80320 2528 ft 149 kts 197°
2026-05-03 22:36 41.64348 8.79470 2524 ft 150 kts 240°
2026-05-03 22:36 41.64113 8.78134 2526 ft 151 kts 254°
2026-05-03 22:36 41.63490 8.77055 2518 ft 146 kts 212°
2026-05-03 22:36 41.62656 8.76429 2520 ft 129 kts 207°
2026-05-03 22:37 41.61908 8.75908 2518 ft 114 kts 206°
2026-05-03 22:37 41.61229 8.75434 2516 ft 106 kts 206°
2026-05-03 22:37 41.60602 8.74996 2521 ft 98 kts 206°
2026-05-03 22:37 41.59984 8.74785 2522 ft 89 kts 169°
2026-05-03 22:38 41.59408 8.75024 2512 ft 86 kts 159°
2026-05-03 22:38 41.58860 8.75284 2517 ft 82 kts 159°
2026-05-03 22:38 41.58330 8.75536 2520 ft 80 kts 159°
2026-05-03 22:38 41.57822 8.75777 2520 ft 77 kts 159°
2026-05-03 22:39 41.57330 8.76013 2516 ft 74 kts 156°
2026-05-03 22:39 41.56909 8.76417 2479 ft 78 kts 120°
2026-05-03 22:39 41.56747 8.77157 2527 ft 93 kts 119°
2026-05-03 22:39 41.56231 8.77707 2542 ft 101 kts 157°
2026-05-03 22:40 41.55552 8.78050 2539 ft 107 kts 159°
2026-05-03 22:40 41.54841 8.78398 2538 ft 111 kts 159°
2026-05-03 22:40 41.54108 8.78758 2537 ft 113 kts 159°
2026-05-03 22:40 41.53365 8.79123 2538 ft 115 kts 159°
2026-05-03 22:41 41.52611 8.79491 2538 ft 116 kts 159°
2026-05-03 22:41 41.51954 8.80099 2531 ft 116 kts 137°
2026-05-03 22:41 41.51365 8.80839 2538 ft 116 kts 136°
2026-05-03 22:41 41.50787 8.81575 2538 ft 117 kts 136°
2026-05-03 22:42 41.50192 8.82331 2542 ft 116 kts 136°
2026-05-03 22:42 41.49612 8.83071 2534 ft 117 kts 136°
2026-05-03 22:42 41.49107 8.83911 2526 ft 118 kts 109°
2026-05-03 22:42 41.49162 8.84978 2527 ft 120 kts 64°
2026-05-03 22:43 41.49780 8.85688 2526 ft 121 kts 23°
2026-05-03 22:43 41.50518 8.86209 2519 ft 120 kts 47°
2026-05-03 22:43 41.50808 8.87205 2525 ft 117 kts 91°
2026-05-03 22:43 41.50693 8.88274 2526 ft 116 kts 103°
2026-05-03 22:44 41.50474 8.89309 2535 ft 116 kts 108°
2026-05-03 22:44 41.50233 8.90330 2538 ft 116 kts 108°
2026-05-03 22:44 41.49972 8.91343 2538 ft 115 kts 110°
2026-05-03 22:44 41.49704 8.92349 2536 ft 115 kts 110°
2026-05-03 22:45 41.49435 8.93358 2535 ft 116 kts 110°
2026-05-03 22:45 41.49164 8.94378 2532 ft 117 kts 110°
2026-05-03 22:45 41.48891 8.95402 2531 ft 118 kts 110°
2026-05-03 22:45 41.48618 8.96430 2531 ft 117 kts 110°
2026-05-03 22:46 41.48347 8.97451 2531 ft 117 kts 110°
2026-05-03 22:46 41.48075 8.98471 2530 ft 117 kts 110°
2026-05-03 22:46 41.47804 8.99492 2538 ft 116 kts 110°
2026-05-03 22:46 41.47531 9.00519 2504 ft 119 kts 110°
2026-05-03 22:47 41.47255 9.01559 2508 ft 118 kts 110°
2026-05-03 22:47 41.46984 9.02576 2503 ft 118 kts 110°
2026-05-03 22:47 41.46708 9.03609 2505 ft 119 kts 110°
2026-05-03 22:47 41.46432 9.04646 2505 ft 118 kts 110°
2026-05-03 22:48 41.46156 9.05683 2505 ft 119 kts 110°
2026-05-03 22:48 41.45879 9.06719 2504 ft 118 kts 110°
2026-05-03 22:48 41.45605 9.07749 2504 ft 117 kts 110°
2026-05-03 22:48 41.45333 9.08774 2505 ft 117 kts 110°
2026-05-03 22:49 41.45056 9.09799 2505 ft 117 kts 115°
2026-05-03 22:49 41.44470 9.10507 2503 ft 117 kts 161°
2026-05-03 22:49 41.43674 9.10421 2506 ft 118 kts 205°
2026-05-03 22:49 41.42952 9.09826 2368 ft 129 kts 212°
2026-05-03 22:50 41.42181 9.09142 2196 ft 136 kts 212°
2026-05-03 22:50 41.41387 9.08436 2023 ft 140 kts 212°
2026-05-03 22:50 41.40565 9.07706 1849 ft 143 kts 212°
2026-05-03 22:50 41.39734 9.06967 1673 ft 144 kts 212°
2026-05-03 22:51 41.38898 9.06224 1498 ft 145 kts 212°
2026-05-03 22:51 41.38058 9.05481 1323 ft 145 kts 212°
2026-05-03 22:51 41.37211 9.04735 1148 ft 146 kts 212°
2026-05-03 22:51 41.36359 9.03986 1001 ft 145 kts 212°
2026-05-03 22:52 41.35547 9.03269 1001 ft 136 kts 212°
2026-05-03 22:52 41.34777 9.02589 999 ft 130 kts 212°
2026-05-03 22:52 41.34100 9.01820 995 ft 129 kts 238°
2026-05-03 22:52 41.33933 9.00688 998 ft 125 kts 274°
2026-05-03 22:53 41.34191 8.99609 997 ft 122 kts 303°
2026-05-03 22:53 41.34677 8.98689 998 ft 121 kts 311°
2026-05-03 22:53 41.35311 8.97977 992 ft 119 kts 340°
2026-05-03 22:53 41.36104 8.97985 997 ft 115 kts 22°
2026-05-03 22:54 41.36832 8.98409 1002 ft 114 kts 26°
2026-05-03 22:54 41.37561 8.98827 1002 ft 114 kts 25°
2026-05-03 22:54 41.38290 8.99245 1002 ft 114 kts 25°
2026-05-03 22:54 41.39021 8.99657 1001 ft 114 kts 24°
2026-05-03 22:55 41.39751 9.00063 1002 ft 114 kts 25°
2026-05-03 22:55 41.40471 9.00510 1002 ft 114 kts 28°
2026-05-03 22:55 41.41163 9.01008 1002 ft 114 kts 31°
2026-05-03 22:55 41.41854 9.01529 1001 ft 114 kts 31°
2026-05-03 22:56 41.42551 9.02058 1004 ft 117 kts 31°
2026-05-03 22:56 41.43269 9.02606 1005 ft 120 kts 32°
2026-05-03 22:56 41.43994 9.03177 1007 ft 122 kts 32°
2026-05-03 22:56 41.44727 9.03758 1007 ft 123 kts 32°
2026-05-03 22:57 41.45443 9.04327 1001 ft 117 kts 32°
2026-05-03 22:57 41.46127 9.04867 999 ft 112 kts 32°
2026-05-03 22:57 41.46784 9.05380 896 ft 108 kts 32°
2026-05-03 22:57 41.47401 9.05897 764 ft 105 kts 35°
2026-05-03 22:58 41.47996 9.06503 540 ft 109 kts 42°
2026-05-03 22:58 41.48518 9.07208 389 ft 107 kts 50°
2026-05-03 22:58 41.49022 9.07938 224 ft 104 kts 48°
2026-05-03 22:58 41.49497 9.08636 73 ft 99 kts 47°
2026-05-03 22:59 41.49881 9.09195 61 ft 64 kts 47°
2026-05-03 22:59 41.50116 9.09537 65 ft 39 kts 49°
2026-05-03 22:59 41.50176 9.09715 66 ft 11 kts 126°
2026-05-03 22:59 41.50119 9.09787 66 ft 9 kts 134°
2026-05-03 23:00 41.50102 9.09879 66 ft 11 kts 105°
2026-05-03 23:00 41.50090 9.09952 66 ft 6 kts 46°
2026-05-03 23:00 41.50126 9.09995 66 ft 5 kts 45°
2026-05-03 23:00 41.50142 9.10007 66 ft 0 kts 43°
2026-05-03 23:01 41.50142 9.10008 66 ft 0 kts 47°
2026-05-03 23:02 41.50134 9.10008 66 ft 0 kts 229°